Terminal Aerodrome Forecast
Issued by NWS

Home | Current Version | Previous Version | Text Only | Print | Product List | Glossary On
Versions: 1 2 3 4 5 6 7 8 9 10 11 12 13 14 15 16 17 18 19
000
FTUS43 KDVN 170651 AAA
TAFBRL
TAF AMD
KBRL 170651Z 1707/1806 28005KT 1/4SM -DZ FG VV002
     FM171200 28007KT 2SM BR OVC006
     FM171600 28009KT 5SM BR OVC009
     FM180100 29007KT 5SM BR BKN020=

USA.gov is the U.S. government's official web portal to all federal, state and local government web resources and services.